Theta_e
330 325 322 323 326 320 314 309 295 299 299 293 290 292 292 299 300 298 299 302 301 307 310 312 310 314 312 312 316 318 319 314 316 302 302 318 329 330 334 338 340 340 341 342 342 343 344 346 347 346 345 344 343 342 341 341 340 340 342 342 342 342 342 342 342 341 340 340 343 344 344 344 344 344 343 342 342 345 347 347 347 346 346 347 346 346 345 344 343 342 342 342 341 341 340 338 337
327 321 319 318 317 314 305 308 296 292 293 289 293 293 295 297 298 298 301 303 304 308 310 310 310 312 320 320 320 319 317 320 321 320 324 329 330 329 336 339 339 339 340 341 342 342 342 344 346 346 345 345 343 342 341 341 341 339 341 340 340 340 340 339 343 342 342 341 340 341 344 345 345 344 345 345 345 343 344 345 345 346 346 346 345 345 345 345 343 342 341 342 340 340 339 337 336
328 323 319 317 314 312 309 302 293 290 289 286 290 294 299 301 300 302 304 306 308 310 310 310 312 312 311 315 318 315 308 324 324 325 324 329 323 325 333 339 339 340 341 341 341 341 341 342 345 346 345 344 343 342 342 342 341 340 339 339 342 341 340 341 342 342 342 341 340 342 343 344 344 343 346 346 347 347 346 346 345 345 346 345 345 345 344 344 343 342 341 340 340 338 338 337 336
327 323 320 314 306 310 302 298 293 292 289 289 290 295 299 300 301 303 305 307 309 309 310 309 309 314 313 316 318 322 319 320 325 325 323 325 325 328 330 336 339 340 341 341 341 340 339 343 344 346 345 343 343 342 343 343 342 341 340 340 340 339 340 339 339 339 339 339 339 341 344 344 343 344 346 346 347 346 345 345 344 344 344 343 343 343 344 343 342 341 340 339 339 338 337 336 337
321 323 320 315 308 301 302 297 295 290 289 289 289 297 301 304 304 306 307 307 307 309 311 311 309 311 318 319 320 313 315 324 327 329 325 329 332 329 329 331 335 338 339 340 340 340 339 342 344 344 344 343 343 342 343 345 343 341 340 339 339 339 339 337 337 339 339 338 338 339 340 341 342 343 345 345 346 346 345 344 344 344 342 342 342 342 343 343 342 340 339 338 338 338 337 336 337
320 321 321 314 305 307 301 294 291 291 294 294 292 297 302 305 306 305 306 308 310 309 311 309 309 308 317 319 322 317 325 318 326 327 328 328 330 328 328 329 330 337 339 340 340 339 339 340 343 343 344 342 342 344 344 345 343 342 341 340 339 336 336 342 342 341 341 339 339 339 340 340 342 342 345 345 344 344 344 343 342 342 342 341 341 341 341 342 341 339 338 337 337 337 337 336 336
315 309 311 311 309 306 296 293 294 292 295 296 295 300 304 304 306 306 305 306 309 309 310 311 317 316 314 320 321 325 329 328 326 327 330 331 330 329 328 327 329 338 339 339 339 339 338 340 344 345 344 343 342 344 343 344 344 342 340 338 337 338 337 342 342 342 341 341 341 341 341 342 342 342 343 344 344 344 343 344 343 343 341 341 341 341 341 342 340 339 337 337 337 336 336 335 335
319 307 309 301 299 299 295 293 293 292 296 298 299 303 305 306 305 304 304 304 305 305 308 310 309 310 311 320 314 325 330 332 330 332 332 332 332 329 328 326 331 336 338 339 339 338 344 340 343 343 343 343 343 343 343 343 342 342 340 339 339 340 341 342 342 342 342 342 342 342 342 342 342 342 342 342 343 342 342 343 342 342 341 341 340 340 340 340 340 339 337 337 336 336 335 335 335
312 311 310 303 297 299 295 295 293 295 296 298 299 305 311 307 305 305 303 306 305 307 307 307 308 304 311 318 316 324 327 331 332 333 333 333 332 331 327 326 329 335 337 338 338 338 338 340 341 343 342 343 343 343 343 342 342 341 341 340 340 343 343 342 341 342 342 342 342 341 341 341 343 343 343 343 342 342 342 342 341 341 341 340 340 340 340 339 339 338 337 336 336 335 334 334 334
309 307 299 301 300 296 295 294 291 295 296 297 301 303 304 304 304 304 302 302 304 306 308 307 308 310 318 315 317 322 324 331 332 332 333 333 333 332 326 327 334 335 335 336 336 338 338 344 338 340 341 343 344 344 343 342 341 341 341 340 342 342 342 342 342 342 342 342 341 340 340 340 342 343 342 341 341 341 341 341 340 340 340 339 340 339 339 339 339 338 337 336 335 334 334 334 333
304 309 308 301 294 294 294 294 292 296 296 298 300 302 303 304 304 301 302 303 304 306 308 307 305 315 319 317 317 324 330 331 331 329 332 333 333 332 326 330 333 334 332 333 335 338 338 338 341 338 340 340 342 343 342 342 341 341 341 340 341 342 342 342 342 340 340 340 339 338 339 339 339 340 341 341 341 341 340 341 341 340 340 340 340 339 339 338 337 337 337 336 335 334 333 333 333
301 302 304 296 295 295 295 295 294 295 297 298 298 303 303 304 304 301 301 303 305 306 307 306 304 310 315 315 315 323 329 329 330 331 332 333 332 331 328 330 332 332 332 334 336 336 337 337 338 341 337 337 339 340 341 342 342 343 342 340 339 339 340 340 339 338 338 339 339 339 341 341 341 341 343 342 342 341 341 340 340 340 340 339 338 338 338 337 337 337 336 336 335 334 333 333 332
305 304 300 298 294 299 297 296 294 294 294 297 297 303 302 304 304 303 301 305 305 306 307 307 308 306 311 315 319 324 326 328 331 332 332 331 331 330 329 330 331 332 333 333 334 334 335 335 337 338 336 334 334 335 338 340 342 343 342 341 340 341 340 340 338 338 342 342 342 341 341 341 340 340 340 341 341 340 340 340 339 338 338 338 338 338 338 337 337 337 336 335 335 334 333 332 332
309 308 302 297 299 299 297 297 295 292 293 299 299 303 303 304 303 304 302 300 301 304 307 308 311 322 317 318 317 319 324 329 331 331 332 331 331 330 329 329 329 331 331 331 332 335 334 334 336 335 335 334 332 332 333 338 340 342 341 340 340 340 341 340 341 342 341 340 340 340 339 339 339 339 339 339 338 340 338 337 339 338 338 338 337 337 337 337 336 336 336 335 334 333 333 332 332
311 311 301 300 299 297 297 297 296 292 294 298 301 302 303 307 304 303 305 303 306 310 311 315 311 306 309 315 313 319 325 329 330 331 330 331 330 329 328 328 328 328 328 329 333 334 334 334 335 335 334 333 332 331 333 335 335 338 339 339 339 339 340 339 339 337 337 338 337 335 335 334 333 334 334 336 336 335 336 334 336 337 337 337 336 336 337 336 336 335 335 334 334 333 332 332 331
315 308 303 299 295 296 297 299 297 294 295 299 301 302 302 305 305 302 305 306 306 310 309 306 312 309 315 315 317 324 329 330 330 330 329 328 328 328 327 327 327 326 326 328 330 332 334 334 334 335 335 334 331 330 331 333 333 333 335 336 336 337 337 336 335 334 332 331 331 331 329 328 328 328 328 329 331 333 333 329 332 336 336 336 336 336 335 335 335 335 334 334 333 333 332 332 332
313 309 302 298 294 296 297 299 299 295 296 299 302 303 301 302 305 305 306 308 306 305 311 312 311 323 322 322 324 327 330 330 328 329 328 326 325 324 323 323 324 325 327 328 328 329 333 333 334 334 335 335 332 331 330 331 333 331 331 331 332 333 333 333 332 327 325 324 325 324 326 327 326 326 326 325 325 326 325 327 331 335 336 335 335 335 334 334 333 333 333 333 332 332 331 331 329
308 300 298 297 297 298 301 302 301 299 297 298 301 301 301 300 303 305 306 304 304 306 312 314 320 320 324 325 329 330 330 328 328 327 325 324 323 322 321 321 322 322 323 327 328 328 331 333 333 333 333 335 333 332 331 331 331 331 331 330 329 330 328 327 327 328 330 325 323 325 326 327 326 326 327 330 324 324 323 325 329 334 335 334 335 334 333 333 332 332 331 331 331 331 327 318 318
302 298 297 296 300 303 304 301 300 297 297 299 301 300 301 302 302 304 301 301 302 303 308 312 315 319 324 326 328 328 328 327 327 327 325 323 323 322 321 321 320 321 321 323 325 327 328 332 332 331 331 336 334 332 331 330 330 330 330 330 329 327 329 328 328 328 326 325 324 325 325 326 326 326 326 327 325 321 323 325 329 331 333 332 335 334 333 333 333 331 331 331 330 328 318 315 317
303 299 295 297 305 305 303 302 300 300 300 300 298 302 301 303 303 304 301 299 300 301 304 307 314 317 320 323 326 327 327 326 327 326 325 324 323 323 322 321 320 321 322 323 324 327 327 328 329 329 330 334 334 332 330 329 329 330 330 329 328 328 327 328 328 328 327 326 326 325 325 324 325 326 329 330 327 322 320 321 324 325 327 329 330 330 331 332 332 331 330 330 328 322 319 317 317
304 300 297 301 306 303 301 301 300 300 301 299 298 299 299 301 302 303 300 299 298 300 308 309 311 319 321 323 325 326 326 325 325 326 325 324 324 324 324 323 321 322 323 323 323 326 326 326 327 328 330 332 334 332 329 329 329 329 329 329 329 328 327 328 328 328 328 327 326 326 325 323 326 325 326 324 322 322 320 319 319 321 321 323 323 323 323 323 323 320 320 320 316 317 317 318 319
305 300 302 304 302 299 301 300 299 299 299 299 297 298 299 301 302 301 300 297 294 299 303 309 314 322 322 322 324 325 325 324 325 325 325 325 324 323 324 324 323 323 323 323 323 325 326 326 325 327 329 330 334 332 330 329 329 328 327 328 328 327 328 328 327 328 327 328 327 326 327 325 325 325 324 324 323 322 321 320 321 321 320 321 320 323 321 321 319 320 320 318 317 317 319 318 318
300 302 302 303 303 301 301 301 300 298 300 298 298 300 301 299 299 299 300 299 300 302 304 305 315 324 325 325 325 324 324 324 324 324 325 324 324 324 324 324 323 322 322 323 324 323 326 326 326 326 327 328 331 333 331 329 329 327 327 327 327 326 327 327 326 327 327 328 328 327 326 325 324 324 324 323 323 322 322 321 321 321 322 321 321 321 321 321 319 319 320 320 319 317 318 318 318
305 301 302 304 304 300 300 300 301 299 299 299 299 300 299 298 298 299 299 299 300 302 303 307 315 322 326 324 324 324 324 324 325 326 326 326 326 324 324 324 325 323 321 322 323 324 325 326 326 326 325 327 328 331 330 329 329 326 326 325 326 325 326 326 325 327 327 328 327 327 325 326 324 323 323 322 322 322 322 322 322 321 322 322 322 321 321 321 318 319 321 320 317 317 318 321 320
303 302 304 305 305 300 298 297 299 301 300 298 298 299 298 298 298 299 298 299 300 302 305 313 315 320 324 324 323 323 323 324 324 325 326 326 326 325 324 325 325 324 322 322 323 323 325 326 326 326 325 326 327 328 327 327 328 325 325 325 324 323 326 325 325 325 326 326 327 326 325 324 323 324 322 322 322 322 322 322 322 322 322 323 322 319 321 321 319 318 319 319 317 316 319 323 321
305 305 308 304 303 299 297 299 300 299 300 298 298 297 296 297 299 299 299 299 300 302 305 314 315 317 321 323 323 322 323 323 324 324 324 325 326 325 323 324 325 324 324 323 322 323 325 326 326 326 326 326 326 325 325 325 326 324 324 325 325 322 325 325 324 324 325 326 326 325 325 325 325 324 324 322 323 323 323 323 322 322 323 323 322 320 320 320 318 316 317 318 318 317 318 321 319
305 304 307 306 301 298 298 299 299 299 300 297 297 296 296 297 298 295 299 301 300 301 302 312 314 314 317 322 323 323 323 323 323 325 324 324 324 325 325 324 324 325 325 324 323 323 324 324 326 327 326 325 326 325 324 325 325 324 324 324 324 323 324 324 324 324 325 325 326 326 325 325 325 325 325 324 323 323 322 323 322 321 322 321 323 321 321 321 319 319 319 317 318 318 318 317 317
304 305 304 304 300 299 298 298 298 298 299 297 298 296 297 297 299 297 300 302 302 302 301 303 312 313 314 318 321 322 323 324 324 324 323 323 324 325 325 325 324 325 325 325 324 323 323 324 326 327 327 326 326 326 324 324 325 325 325 325 324 324 324 324 324 325 324 325 326 326 326 326 325 324 325 324 324 323 322 322 322 321 321 319 322 321 320 322 320 319 319 320 319 318 317 316 317
309 305 300 301 299 298 298 298 298 298 298 297 300 298 296 296 294 298 300 301 302 303 302 302 303 310 312 314 317 318 321 323 323 323 324 326 326 327 326 327 326 325 326 327 326 324 323 323 325 326 327 325 325 326 325 325 325 325 325 325 325 325 324 324 324 324 325 326 326 327 327 327 325 325 325 325 323 324 324 322 322 322 322 322 322 322 321 321 318 319 320 319 318 318 318 317 317
307 302 298 297 297 295 298 300 298 298 299 298 302 291 295 298 298 299 301 300 301 301 300 302 302 303 306 308 314 315 317 319 322 324 325 325 326 327 326 328 327 326 325 326 326 325 324 324 325 326 326 326 325 326 326 324 325 325 325 326 325 325 325 324 324 325 325 325 326 327 327 327 326 325 325 325 324 324 324 323 323 322 323 322 322 322 320 320 320 319 320 318 319 318 317 318 317
302 303 302 294 292 291 298 299 298 297 298 300 303 294 297 299 301 302 302 301 300 300 299 301 303 303 303 304 308 313 315 318 322 324 325 326 326 327 327 328 328 327 323 326 327 327 324 324 325 325 324 325 324 325 325 325 325 325 325 326 325 325 325 325 325 325 325 325 325 326 327 327 327 327 324 325 324 324 324 323 322 323 323 323 321 322 322 321 321 321 318 320 319 316 317 320 319
302 299 294 297 294 294 301 301 299 297 299 299 300 292 296 299 303 304 301 300 300 299 299 299 303 304 304 303 305 310 314 317 320 323 325 326 327 327 327 327 328 328 326 325 327 328 326 325 324 324 323 325 324 325 325 325 325 326 326 324 326 325 324 325 325 325 326 325 325 326 327 327 327 328 325 324 325 324 324 323 323 323 324 323 322 322 322 322 321 321 320 321 317 317 317 318 316
301 299 294 294 295 297 300 302 300 301 298 299 299 292 294 297 301 305 299 300 299 299 299 299 301 304 304 303 304 307 312 313 316 321 323 325 327 328 328 328 328 328 328 326 327 327 328 326 324 324 322 324 324 324 324 324 325 325 325 326 326 326 325 325 325 325 326 325 325 325 327 327 326 327 326 323 325 324 322 322 323 323 324 324 322 322 322 322 321 321 320 319 320 318 316 316 314
296 299 294 296 296 296 295 300 300 299 299 295 297 295 296 298 298 300 299 300 299 299 299 299 300 302 304 303 304 306 309 313 314 317 322 324 327 328 329 326 327 328 328 327 327 328 328 328 326 325 323 324 324 324 323 324 325 325 324 325 323 326 326 325 325 325 326 326 325 325 325 326 325 325 325 323 323 324 323 321 322 324 324 323 322 322 322 322 321 321 320 319 319 319 316 317 315
294 296 295 296 297 298 298 297 300 298 298 296 295 295 297 299 300 300 298 298 299 299 299 299 299 299 301 303 304 307 309 310 314 317 320 323 325 327 328 327 327 327 328 327 327 328 328 328 327 325 324 324 324 324 323 323 324 323 323 324 324 325 326 326 325 325 326 326 326 326 325 326 325 325 324 323 322 323 322 321 321 323 324 323 322 322 321 321 320 319 319 318 319 320 319 318 318
299 299 299 298 295 295 297 300 302 299 295 295 294 293 295 298 299 301 300 297 298 299 298 298 299 300 299 301 304 306 308 310 312 316 318 321 324 325 326 326 326 326 327 327 326 327 327 327 327 326 326 326 325 324 323 322 323 323 323 322 323 323 325 324 325 325 325 325 326 325 325 326 325 325 325 323 323 322 322 321 321 322 323 323 322 321 320 320 320 319 318 318 317 317 318 319 315
305 302 300 298 297 298 300 301 302 302 297 296 297 296 296 297 298 300 302 298 296 297 297 298 299 300 301 300 303 305 307 309 311 312 316 318 321 324 324 325 325 325 326 327 327 327 327 327 326 326 327 327 326 325 324 323 323 322 322 323 323 323 324 325 324 324 324 325 325 325 325 325 325 325 325 325 323 321 322 322 321 322 324 324 323 323 322 322 322 321 320 317 317 316 316 317 316
305 302 299 297 298 296 301 299 301 304 299 297 298 298 297 298 300 301 302 300 297 297 297 299 300 301 302 302 301 304 307 307 308 308 312 317 319 321 323 324 322 323 324 326 326 327 327 327 326 327 327 328 327 327 326 325 324 325 324 324 324 324 323 323 324 324 325 325 325 325 325 326 326 325 324 325 324 323 322 321 321 322 323 324 324 324 323 319 321 321 319 316 316 317 316 317 317
304 302 300 297 297 299 294 296 298 298 300 292 292 297 298 300 300 302 302 302 302 300 299 301 301 301 302 302 300 300 303 305 306 308 310 316 318 320 322 323 324 325 325 325 326 326 326 327 326 327 327 328 328 328 328 326 326 325 325 324 325 322 323 325 325 325 325 325 326 326 325 325 326 325 325 324 325 324 323 322 322 323 324 324 323 323 323 322 322 321 320 319 316 316 317 317 317
302 301 297 295 299 297 290 292 293 297 296 292 291 290 292 294 296 297 300 301 303 303 302 301 302 302 302 303 302 301 300 303 304 306 307 313 317 319 321 322 324 324 324 325 325 326 327 326 327 326 327 327 328 328 326 328 328 327 327 325 324 325 323 322 324 323 325 324 325 326 326 326 326 326 326 325 325 326 324 323 323 324 324 325 325 324 323 322 321 321 321 320 319 316 316 316 317
302 302 299 298 298 300 296 292 293 293 292 294 292 291 293 294 295 297 300 300 300 301 301 302 301 302 303 304 303 302 301 302 303 305 306 309 315 317 320 322 323 323 324 324 325 326 327 326 327 326 327 327 328 326 326 327 325 325 327 325 322 322 322 323 324 325 326 325 326 326 327 326 326 327 327 326 325 326 326 325 323 323 324 325 325 325 324 324 323 322 322 321 320 319 316 315 315
300 302 302 301 301 294 294 293 292 288 288 291 293 284 284 289 294 296 299 298 299 301 300 300 300 301 300 301 302 303 303 302 303 304 306 308 314 318 320 321 321 322 323 324 326 326 327 327 327 326 326 327 327 327 326 326 325 326 324 324 322 323 323 324 323 324 325 325 325 327 327 327 327 327 327 327 326 325 326 326 325 324 324 325 325 325 325 324 324 323 322 322 321 321 320 316 314
297 300 303 303 300 295 293 293 293 286 285 290 293 288 285 288 291 292 294 294 297 299 299 301 301 301 300 301 302 303 305 304 302 303 305 307 311 316 319 320 321 322 323 325 325 325 326 326 326 326 326 326 327 326 326 324 325 326 325 325 325 324 323 324 326 326 326 327 327 326 328 328 328 328 328 328 328 327 327 327 326 325 325 325 325 325 325 325 325 324 324 323 322 321 319 317 315
294 299 302 303 297 294 293 293 293 287 290 291 292 289 283 287 293 295 295 295 296 297 298 300 301 301 302 302 302 303 304 306 306 303 304 307 309 314 317 320 321 322 324 324 324 325 325 325 326 326 326 325 326 327 326 325 325 325 325 325 324 324 324 323 324 325 325 325 326 327 326 327 328 330 329 329 329 328 327 329 329 328 326 326 325 325 325 326 325 325 324 324 324 322 320 319 316
296 298 303 301 301 296 294 292 288 289 288 285 286 289 286 281 287 292 293 294 295 297 299 299 300 301 302 302 303 303 304 305 306 305 303 304 306 310 315 318 321 322 322 322 323 324 325 325 324 325 326 325 325 325 325 325 324 325 324 324 323 324 325 324 320 322 323 323 324 325 326 327 328 330 331 330 330 329 327 328 330 330 329 328 325 326 326 326 325 325 324 323 323 322 322 321 319
297 298 300 300 298 296 294 287 290 286 284 286 285 288 285 286 289 293 291 291 295 297 298 299 299 300 302 303 303 303 303 302 302 305 304 304 304 306 311 315 317 320 321 321 322 323 323 323 323 323 324 325 325 324 324 325 324 323 324 323 323 323 322 322 321 321 322 322 324 324 325 326 327 328 329 330 330 330 329 328 329 330 330 330 326 327 327 326 326 326 325 324 324 323 322 321 320
298 299 296 294 291 288 285 285 284 286 284 287 288 288 288 284 286 292 289 291 296 296 295 295 297 299 301 303 303 303 302 300 301 302 303 303 302 303 305 308 312 315 316 317 318 319 320 321 322 321 323 325 324 324 324 324 324 323 323 323 323 322 322 322 321 321 321 321 323 323 324 325 326 327 328 329 330 330 330 329 329 329 330 329 327 328 327 327 327 326 325 325 323 323 323 322 319
298 290 290 292 288 287 285 285 284 283 284 283 288 288 289 284 282 290 295 295 294 297 296 296 297 298 299 301 302 303 301 300 300 300 300 301 300 299 299 304 306 310 311 314 317 317 318 320 321 321 321 322 323 324 324 324 324 323 323 323 323 323 322 322 321 321 321 321 322 323 323 324 324 325 326 328 328 329 329 329 328 329 328 330 329 329 329 328 328 327 326 325 324 324 324 322 322
295 292 293 289 281 283 282 285 282 282 282 283 284 287 284 287 288 289 294 295 297 295 297 298 298 298 297 298 300 301 299 297 298 299 300 300 301 301 299 300 302 306 310 313 315 317 318 319 319 320 320 321 323 323 324 324 324 324 323 323 323 323 322 322 321 321 321 322 322 322 321 322 323 323 325 326 327 328 328 328 329 328 328 328 329 330 330 329 329 327 326 326 325 324 324 323 322
293 293 290 287 279 277 279 278 279 278 281 282 283 286 285 287 289 296 297 300 299 296 296 297 297 295 295 297 297 298 297 298 298 299 299 300 300 301 301 301 301 305 308 311 313 315 317 318 318 319 320 320 320 321 323 323 324 324 324 324 323 322 322 322 322 322 322 322 322 322 322 323 322 323 324 325 327 328 328 328 328 329 329 329 328 329 329 329 329 328 327 326 325 325 325 323 322
294 294 295 289 286 278 277 277 278 277 277 280 282 284 280 284 285 291 300 301 298 297 295 294 293 293 295 294 295 295 295 295 296 297 299 299 299 299 300 300 300 302 305 308 310 312 313 315 317 317 319 318 319 320 321 322 323 324 324 324 324 323 323 322 323 323 322 321 321 321 322 323 323 323 323 324 323 326 327 328 328 328 328 328 328 327 327 328 328 328 327 327 326 325 324 323 322
291 293 295 289 289 283 278 276 279 275 275 276 278 283 282 288 290 293 292 292 293 293 296 294 296 294 295 295 295 296 296 296 296 296 297 297 298 297 297 297 298 298 299 302 304 307 309 313 314 317 318 316 315 316 318 320 321 321 320 321 322 322 321 322 321 320 321 321 321 321 321 321 322 322 322 321 322 324 325 325 325 326 327 327 327 327 327 326 326 326 327 327 326 325 324 323 322
291 294 290 294 293 287 278 279 281 277 275 277 277 281 284 287 293 296 297 294 295 291 291 293 295 294 292 295 295 295 296 296 296 297 297 298 296 297 298 297 297 297 297 299 301 302 305 306 306 307 307 305 309 312 315 315 317 316 318 319 319 319 320 320 321 320 319 318 319 320 320 320 320 320 321 320 321 322 323 323 324 324 325 326 326 326 326 326 326 326 325 325 325 324 323 323 322
292 288 293 294 293 290 286 280 275 275 273 276 280 282 281 283 283 289 294 294 295 292 292 292 292 291 293 295 294 296 296 296 296 296 296 296 299 300 299 299 299 299 299 298 298 297 299 300 301 302 300 304 304 306 308 311 313 314 315 316 318 319 320 319 318 317 317 316 317 317 316 317 317 318 319 318 319 319 321 316 322 322 323 324 324 325 325 325 325 325 325 325 325 323 321 321 321
296 293 297 293 285 286 284 280 276 272 272 271 276 280 280 284 286 287 290 292 294 294 292 290 291 292 293 294 294 294 294 294 295 295 296 297 298 299 300 300 298 298 299 299 298 299 298 297 299 301 302 303 304 307 308 309 311 314 315 315 314 315 315 315 313 315 315 315 316 315 315 314 313 312 311 312 315 316 318 318 319 320 321 322 323 323 322 324 324 323 323 323 323 321 320 319 318
293 296 294 294 288 287 284 285 276 280 273 274 272 277 279 286 287 288 291 292 294 295 293 291 293 294 295 296 295 294 295 296 296 296 298 299 299 298 298 298 298 299 298 298 299 299 300 300 300 300 300 300 300 303 304 307 307 310 311 308 308 310 311 311 311 312 312 312 312 310 311 309 312 308 312 312 314 315 316 316 316 318 319 321 321 322 322 321 321 323 323 321 320 319 318 316 314
289 291 290 291 288 287 287 287 281 279 273 272 272 275 280 282 289 292 296 294 294 296 296 295 293 294 295 295 295 294 295 296 296 297 298 298 297 295 295 295 296 296 295 295 298 299 299 298 299 299 301 300 301 302 302 305 305 306 305 307 306 306 307 307 307 307 308 307 308 306 309 309 306 311 310 311 312 315 316 316 317 317 319 319 319 318 318 320 320 318 319 320 319 317 317 315 311
293 293 290 292 289 285 284 281 285 278 279 275 274 279 279 283 290 296 296 297 296 295 296 295 292 293 294 294 293 294 294 295 297 298 296 296 294 294 294 294 293 294 294 295 296 296 295 297 299 298 297 300 301 301 303 304 301 302 303 303 304 303 304 304 305 305 305 304 304 306 305 305 305 304 306 311 312 314 315 317 317 317 317 317 318 320 319 317 315 315 315 315 314 314 314 310 307
Wind_Speed
8 7 6 5 1 0 2 2 1 2 2 2 1 1 2 0 3 4 4 3 3 1 2 2 4 5 4 6 12 9 7 1 1 2 2 3 6 12 14 14 12 11 9 7 6 6 7 10 12 12 13 14 13 13 13 12 13 12 14 14 13 13 13 13 13 13 12 13 14 14 14 14 14 14 15 14 15 17 17 17 17 16 17 19 19 19 19 18 18 18 18 17 17 16 16 16 16
6 6 6 4 2 2 1 1 2 1 3 4 0 1 1 1 5 5 5 5 1 1 2 4 6 8 14 14 10 6 8 5 0 2 3 5 10 9 13 14 13 13 9 7 6 6 5 7 11 12 13 13 13 13 12 12 13 10 13 13 12 12 11 12 14 13 13 12 13 14 15 14 14 14 15 15 14 14 15 15 16 17 18 18 18 18 18 18 18 17 17 17 16 16 16 15 15
5 6 6 5 2 2 1 2 1 1 3 2 2 1 2 10 6 4 5 5 4 3 5 4 6 5 5 3 6 5 1 2 6 4 5 8 12 8 12 12 12 13 11 7 7 6 5 7 11 12 13 12 13 12 12 12 12 11 10 11 14 13 12 13 14 13 14 13 13 13 14 14 15 14 15 15 16 16 16 16 15 17 18 18 18 18 18 18 17 17 17 16 16 15 15 15 14
4 1 1 3 3 2 1 2 1 1 2 4 0 1 3 6 5 6 4 5 3 4 1 3 4 2 6 10 8 9 5 1 2 3 6 6 5 9 11 13 12 11 9 7 6 5 5 8 10 11 11 13 12 11 12 12 12 11 10 12 12 12 11 11 12 12 13 13 12 13 15 14 13 15 15 15 16 16 16 17 16 16 18 17 16 17 17 17 17 16 16 16 15 15 15 14 14
4 2 2 2 1 3 1 0 0 3 3 2 4 3 4 6 5 6 3 1 3 4 1 2 2 3 5 5 1 2 2 4 1 1 2 4 8 8 10 12 11 11 9 9 8 6 5 10 10 10 12 12 13 11 11 11 11 11 11 11 11 11 12 11 11 13 12 11 12 12 13 14 14 14 15 16 15 15 15 17 16 16 16 16 16 16 16 16 16 15 15 15 15 15 15 14 14
5 3 0 2 0 2 2 2 4 2 2 2 4 4 4 4 7 4 4 4 1 4 3 3 2 2 5 3 1 3 6 4 4 1 3 7 9 11 10 9 10 10 10 9 8 6 6 10 11 10 12 12 14 13 12 12 12 11 11 11 11 10 10 13 14 13 13 12 12 13 12 14 14 15 16 15 15 14 14 16 16 15 15 15 16 16 16 16 16 15 15 15 15 15 15 14 14
3 5 2 2 2 2 2 1 2 2 4 2 5 5 8 4 6 7 4 3 4 3 4 3 6 6 7 1 3 1 2 6 4 4 3 7 10 10 9 8 9 12 11 9 8 7 8 11 11 11 10 10 14 13 12 12 11 11 11 10 10 11 10 12 12 13 12 13 13 13 13 14 14 14 15 15 14 15 15 16 16 16 15 14 15 15 15 16 15 14 15 15 15 15 14 14 14
0 1 1 2 2 2 1 2 3 3 1 3 3 10 6 7 6 4 3 3 1 2 1 2 2 5 2 3 4 2 5 1 6 7 8 9 9 9 8 7 12 10 10 9 8 7 10 12 12 11 10 11 13 13 13 12 11 10 10 10 10 11 11 12 12 12 12 12 12 13 13 13 13 13 14 14 14 14 15 16 15 16 15 14 15 14 14 15 14 14 14 14 14 14 14 14 13
2 1 1 3 1 2 2 2 2 2 2 2 3 6 9 9 6 5 2 1 2 1 1 1 3 4 1 6 4 1 3 7 10 10 10 12 9 7 7 7 11 10 10 9 8 7 5 10 11 11 10 10 11 13 13 12 11 11 11 10 11 11 11 11 12 12 12 12 12 12 11 12 13 13 13 14 14 14 14 14 15 15 15 14 14 14 14 14 14 14 14 14 14 14 14 13 13
2 2 2 1 1 3 3 5 3 2 2 3 7 7 7 5 5 6 6 4 3 3 2 3 3 5 4 8 3 2 3 7 10 8 8 11 10 4 7 9 13 13 10 9 8 8 6 9 11 10 9 8 11 12 12 12 11 11 11 11 12 11 11 11 11 12 12 11 12 12 11 12 13 12 13 13 13 13 13 13 14 14 14 13 13 14 13 13 13 13 13 13 13 13 13 13 12
2 1 2 1 2 1 3 4 2 1 4 1 3 4 5 5 7 5 5 5 3 3 0 4 4 9 6 2 0 2 4 7 10 10 7 8 8 4 8 10 11 12 10 9 8 7 7 6 10 10 9 9 10 10 10 9 11 12 10 11 12 13 13 12 12 11 12 12 11 11 11 11 11 12 12 12 12 12 12 13 13 14 14 13 13 13 12 12 12 12 12 12 12 12 12 11 11
1 1 2 2 1 2 2 0 2 2 2 3 1 2 0 4 5 5 6 7 2 3 3 3 1 5 5 3 1 2 7 6 7 8 7 6 5 5 9 8 10 10 11 9 8 6 6 6 6 9 10 10 10 9 9 8 10 11 10 12 11 11 12 13 11 11 10 10 10 11 11 11 11 12 10 11 11 11 12 13 13 13 13 12 12 12 12 11 11 11 11 11 11 11 10 10 9
1 0 2 0 2 1 3 2 1 3 1 0 4 1 2 4 2 7 5 8 6 5 0 4 1 5 2 1 2 3 8 6 6 7 8 6 5 6 9 9 10 10 10 9 8 6 5 5 5 5 7 10 10 10 9 9 11 11 10 10 9 9 10 10 11 10 14 14 13 12 11 11 11 12 12 12 9 11 12 10 10 11 11 12 12 12 11 11 10 10 10 10 10 9 9 8 8
1 1 1 2 0 2 3 1 0 3 2 1 2 1 2 2 1 3 8 5 2 6 2 4 3 7 4 4 1 4 6 8 8 6 5 7 6 8 9 8 8 9 9 9 8 7 5 4 5 4 6 6 6 8 9 10 10 10 10 8 8 8 9 11 9 12 12 11 11 10 10 10 10 10 9 10 9 8 9 10 11 12 12 11 11 11 10 10 9 10 9 9 9 9 8 7 5
1 0 1 0 3 2 3 1 3 4 2 1 1 0 1 1 3 5 8 7 1 1 1 2 3 3 5 7 4 7 8 10 10 6 4 5 7 9 8 8 8 7 7 9 8 8 7 5 5 4 4 4 6 5 5 8 11 10 9 9 9 9 10 11 12 11 12 10 10 10 9 9 9 10 10 10 9 8 10 10 10 10 11 10 10 10 9 9 9 8 8 8 8 8 7 5 3
1 2 2 1 3 0 6 1 2 6 2 2 2 3 4 1 2 3 0 3 2 1 1 0 2 2 4 9 7 10 12 11 9 6 6 7 7 8 8 7 6 6 5 7 8 7 8 8 6 5 4 4 4 5 5 5 9 11 10 10 10 10 11 12 12 11 11 11 10 10 10 7 7 7 10 8 9 8 9 7 8 9 10 10 9 9 8 8 8 7 7 7 6 6 4 4 2
1 3 1 1 5 0 3 1 2 2 2 1 2 1 1 1 1 2 0 3 7 2 5 2 1 2 1 3 10 13 13 12 8 6 6 6 7 7 7 6 6 5 4 6 7 7 8 8 8 7 6 6 5 5 5 5 7 10 9 10 11 11 11 12 11 11 10 10 9 9 8 6 4 4 6 5 7 5 8 9 8 8 8 9 9 8 8 7 7 6 6 5 5 4 2 1 2
2 2 4 4 4 2 2 2 2 3 5 4 2 3 5 3 0 0 2 4 4 4 7 2 7 5 3 6 13 15 14 14 10 10 7 6 6 7 7 6 6 7 5 6 7 7 8 7 8 8 7 8 6 6 5 5 5 7 5 5 5 7 9 9 8 6 7 5 9 7 5 5 5 4 4 6 5 5 5 8 8 8 7 8 8 8 7 6 6 5 4 4 4 3 1 0 3
3 2 3 7 3 4 1 0 2 3 2 5 4 3 4 4 6 1 3 1 4 4 2 3 6 4 6 10 13 14 14 12 12 11 11 10 9 9 8 7 7 7 6 6 6 7 8 7 8 8 8 8 7 6 6 5 6 5 5 5 5 6 6 6 6 6 5 5 5 5 5 5 5 4 5 5 4 6 5 7 8 8 7 7 8 8 6 5 4 3 3 2 3 3 1 1 2
3 3 4 5 3 2 5 1 4 1 7 4 4 1 4 3 3 1 2 5 4 7 6 1 6 7 8 9 11 13 12 12 11 12 12 11 10 10 9 8 7 7 7 6 7 6 8 8 8 9 9 9 8 7 6 6 6 6 6 5 6 5 5 5 5 5 5 5 5 5 5 4 5 5 6 10 8 4 4 6 6 7 7 7 8 4 4 3 3 3 3 2 2 1 2 3 3
2 2 4 4 1 2 3 4 2 4 5 5 4 1 3 1 3 3 4 3 3 4 9 12 11 13 12 11 12 11 12 12 10 10 10 9 6 6 8 9 8 7 7 5 6 7 8 8 8 8 8 9 8 8 8 7 6 6 6 6 6 6 5 5 6 6 5 6 5 5 3 3 4 5 5 5 5 4 3 3 3 3 3 3 4 3 3 2 1 2 1 2 3 2 3 4 4
2 6 5 4 1 3 2 2 5 2 2 6 4 4 3 0 2 1 5 3 4 7 7 8 15 15 15 14 13 11 12 13 12 11 12 12 11 10 8 6 6 7 7 7 8 7 7 7 7 7 7 7 9 8 8 8 8 6 6 6 6 6 6 6 6 6 6 6 6 6 5 5 5 6 5 5 5 5 5 4 4 4 3 4 3 3 3 3 3 3 4 3 4 3 4 4 6
4 3 4 5 2 2 1 0 2 2 1 4 3 1 1 2 0 2 3 5 2 3 3 8 12 17 18 15 14 12 12 13 13 14 13 13 11 10 11 9 9 10 9 8 7 6 7 8 7 6 7 7 9 9 8 8 7 7 7 7 7 6 6 6 6 6 6 6 6 6 6 5 6 6 6 6 6 5 5 5 5 5 5 5 4 4 4 4 4 5 4 5 4 3 4 3 2
4 6 3 6 3 5 4 2 1 1 6 2 2 1 2 1 1 0 3 4 6 3 3 7 15 13 12 13 15 17 17 16 16 15 15 16 15 14 12 11 9 6 7 8 9 8 8 11 10 7 7 8 8 9 9 8 8 7 8 8 7 8 8 7 6 6 6 7 6 6 6 6 7 6 6 6 6 5 6 6 5 5 5 5 5 5 5 5 5 5 4 4 3 4 4 3 3
7 5 4 3 3 4 4 4 2 1 2 1 4 2 2 4 2 0 4 6 4 5 4 6 11 12 12 14 15 14 14 13 13 12 9 8 9 7 6 8 8 7 10 10 10 9 9 10 11 10 8 8 7 9 8 8 8 7 8 8 8 8 8 7 7 6 6 7 6 6 5 6 6 6 7 6 6 6 6 6 6 6 5 6 5 5 5 6 6 5 5 5 4 3 4 3 3
7 7 4 1 2 5 4 3 3 3 1 2 1 2 4 4 2 3 6 6 6 4 7 9 11 12 13 13 15 14 13 15 13 11 13 10 9 9 7 10 10 10 10 10 10 10 9 9 11 11 11 9 8 7 7 7 8 7 8 8 8 8 8 7 6 6 6 6 6 6 6 7 6 7 6 6 7 7 7 6 6 6 6 6 6 6 6 6 6 4 5 4 4 3 1 5 2
5 4 4 5 3 6 4 6 4 3 2 3 3 2 3 3 5 7 4 8 3 5 6 9 13 14 13 12 12 12 13 14 15 14 9 7 9 12 10 9 11 12 9 10 10 9 9 9 11 10 10 10 7 8 7 8 8 8 7 7 7 7 7 7 7 7 7 7 7 7 6 6 7 6 7 7 6 7 7 6 7 7 7 7 7 6 6 6 6 6 6 5 3 4 5 2 2
5 6 4 5 4 4 5 4 5 2 2 4 4 4 2 2 1 9 3 3 8 8 6 8 10 11 11 12 12 11 11 12 10 9 14 12 11 12 13 11 12 11 11 11 10 8 10 12 12 10 11 10 10 9 7 8 9 9 7 7 7 7 6 7 7 7 7 7 8 8 7 6 6 6 8 7 7 6 6 6 6 5 6 6 6 6 6 6 5 4 4 4 4 2 1 1 1
2 6 4 6 4 3 4 5 4 5 3 4 2 2 4 3 7 5 7 2 6 8 8 7 8 10 9 10 10 9 12 10 10 10 14 14 13 12 16 14 12 12 9 11 11 10 12 12 11 11 10 9 11 11 9 8 8 9 7 7 7 8 8 7 7 7 7 7 8 9 8 7 6 7 7 8 7 7 6 6 6 6 6 6 6 5 6 5 4 4 4 4 3 1 0 3 2
3 2 4 3 3 4 6 3 4 7 3 7 4 4 9 10 10 7 9 6 5 7 7 7 7 8 8 8 9 10 8 9 12 14 12 11 11 12 14 13 12 10 9 8 10 12 11 9 9 9 10 11 12 11 9 6 7 8 7 6 7 8 8 7 7 6 6 6 7 8 9 8 7 6 7 7 7 7 7 7 7 7 6 6 6 6 6 6 6 5 5 3 4 3 3 3 3
7 2 2 3 3 6 4 6 5 8 3 9 5 6 10 4 8 13 11 7 9 9 8 8 8 7 7 8 8 10 11 12 15 15 13 12 11 10 12 10 11 10 7 9 12 12 13 11 10 9 11 12 11 11 11 8 7 8 8 7 7 8 8 8 8 7 6 6 6 7 8 8 8 7 6 7 7 7 7 7 7 7 7 6 7 6 7 6 6 6 5 5 4 3 4 5 4
2 5 5 2 7 4 5 9 11 11 1 5 7 6 12 7 8 9 6 8 9 9 7 7 7 8 9 8 8 9 11 11 11 12 13 13 12 11 12 12 12 12 11 10 11 11 12 12 12 11 11 12 12 12 11 10 8 8 8 8 7 7 7 8 9 8 7 6 6 7 8 8 9 9 7 6 7 7 8 8 8 7 7 6 7 6 6 7 6 6 5 6 5 5 5 6 4
3 6 2 6 2 5 3 5 10 12 5 2 11 7 2 6 9 11 3 11 10 10 9 8 8 9 9 8 8 8 8 7 7 10 12 12 12 12 11 12 12 14 12 9 11 12 12 12 13 13 13 13 12 11 10 8 7 7 8 8 9 7 8 8 8 8 7 7 6 6 7 8 8 9 9 7 7 7 7 7 7 8 7 6 6 7 7 7 6 6 6 6 6 6 6 5 4
6 3 3 4 9 3 5 3 5 6 10 6 7 8 10 3 4 3 4 7 9 9 10 10 9 8 9 8 8 8 9 9 11 12 14 14 12 14 12 12 13 13 12 11 11 14 14 12 12 13 12 12 12 11 10 9 8 6 6 7 7 8 8 7 7 7 8 7 7 7 7 8 8 8 9 8 7 7 7 7 7 7 7 6 6 7 7 6 6 6 6 6 6 6 6 5 5
8 7 4 6 3 7 7 5 4 8 8 11 9 11 14 9 6 5 4 5 9 11 10 9 9 7 8 8 9 9 10 10 13 12 13 13 12 12 12 12 12 12 11 13 11 11 11 11 10 11 11 11 11 10 8 7 7 6 5 6 7 7 7 7 7 7 7 7 8 8 9 8 8 8 8 8 8 7 7 7 6 6 6 7 6 7 7 6 6 5 7 6 6 7 7 6 6
10 10 12 7 7 6 8 6 4 15 8 9 10 12 13 13 9 7 5 5 8 10 7 7 7 7 7 8 9 9 9 11 10 9 9 8 10 11 11 11 12 11 11 12 12 11 12 11 10 10 11 11 9 9 8 7 7 8 8 5 7 8 7 7 7 8 8 8 8 9 9 9 8 9 9 9 9 8 8 8 7 7 7 7 8 8 7 7 8 8 7 7 6 5 5 5 4
6 8 6 7 6 3 3 6 5 12 7 13 13 11 9 12 10 10 9 7 7 7 8 9 8 9 9 8 10 11 12 13 10 12 11 11 12 11 10 10 11 11 12 13 13 12 13 14 12 13 11 11 10 10 10 10 9 7 7 9 10 9 9 9 9 9 9 9 8 9 9 9 9 10 10 9 9 9 8 8 9 7 8 8 9 10 10 10 9 9 8 7 8 6 6 5 5
9 8 5 6 6 7 3 6 6 10 10 8 8 7 11 12 9 9 8 8 12 11 11 11 11 11 11 11 11 11 13 6 6 6 7 8 10 10 9 10 10 12 13 14 15 15 13 12 14 13 11 11 12 12 11 11 11 11 11 11 9 9 9 10 10 9 10 9 9 9 9 9 10 11 10 10 11 10 9 9 9 9 9 9 10 10 10 9 9 8 7 6 5 8 6 7 6
5 7 6 4 6 3 3 1 1 3 5 7 2 10 12 10 10 9 9 10 10 12 13 15 14 14 12 11 10 10 7 9 8 10 9 10 11 11 11 11 12 15 14 15 15 13 13 13 13 12 12 13 12 13 11 12 10 9 9 5 7 5 4 6 6 7 7 8 9 9 9 9 10 10 10 11 11 11 11 10 10 10 10 10 10 10 10 11 10 11 10 9 6 5 5 5 7
6 5 5 7 4 6 4 3 1 1 4 1 0 4 7 5 8 11 10 9 8 10 15 15 14 15 14 14 13 11 10 10 11 12 11 11 12 12 11 11 13 12 11 11 12 15 13 13 12 13 13 13 12 12 12 10 9 8 7 5 5 5 4 3 4 4 6 7 9 9 8 9 10 10 10 11 10 10 11 11 10 10 11 10 11 11 11 12 10 10 10 10 8 6 5 7 7
7 5 3 4 4 7 7 5 0 1 3 2 2 6 10 6 10 10 9 10 10 10 8 12 12 11 12 10 8 9 12 12 12 11 10 10 10 13 15 15 13 13 13 14 14 14 12 16 15 14 13 13 12 12 13 9 8 7 7 4 3 4 3 5 6 8 8 9 9 9 11 8 8 9 10 11 10 11 10 10 10 10 10 10 10 11 11 13 12 11 12 10 11 10 9 6 6
7 8 10 6 2 4 3 6 5 2 3 3 3 3 7 4 10 14 8 4 10 8 10 13 11 9 7 9 10 8 8 10 14 14 14 13 14 13 12 13 12 13 13 14 14 15 14 13 13 13 11 11 13 13 13 10 10 11 9 10 10 10 11 11 14 16 13 12 14 10 6 9 9 9 8 9 10 9 10 10 10 10 10 10 10 11 10 10 11 11 11 11 11 10 10 8 6
10 8 10 8 2 5 7 6 4 1 5 3 3 8 9 4 4 4 5 3 8 6 9 14 12 10 9 11 11 12 13 11 9 9 11 12 13 13 14 14 14 15 15 13 12 12 13 12 13 14 13 11 12 11 13 11 11 11 14 14 13 13 13 13 12 8 9 9 7 9 9 8 9 10 9 8 8 8 8 8 9 10 10 10 10 10 10 11 10 11 9 10 11 10 8 9 10
7 2 11 7 6 8 6 6 6 2 1 2 1 2 4 11 9 5 7 8 10 10 12 11 12 12 13 13 13 13 15 14 13 13 12 12 13 16 17 15 14 15 15 11 11 11 13 14 13 14 12 11 10 11 13 14 13 13 13 13 12 13 14 13 10 9 7 7 9 10 8 9 9 10 11 11 11 10 9 9 10 10 10 10 9 10 11 9 9 9 10 11 10 9 11 11 9
3 3 8 9 8 6 6 6 3 0 1 7 4 0 2 7 7 2 2 7 10 15 14 11 12 13 14 15 16 16 16 16 14 12 12 13 14 13 13 14 14 14 12 12 13 13 13 12 12 11 12 11 10 12 13 14 14 13 13 11 12 12 12 9 6 7 8 7 9 9 10 10 10 12 13 12 12 13 12 11 10 11 11 11 9 9 9 9 11 11 11 10 11 10 10 10 9
2 4 4 4 6 5 5 4 4 1 1 11 6 4 6 9 8 7 2 5 15 17 11 12 10 12 14 15 16 16 13 9 9 12 12 12 12 12 11 11 12 13 11 10 10 10 10 9 11 12 13 11 10 11 12 14 14 11 12 13 15 13 10 8 6 8 9 8 11 10 10 10 11 11 12 13 13 13 13 13 12 12 13 12 11 11 11 11 11 12 12 12 11 12 9 10 11
4 9 8 7 7 4 3 5 4 3 8 10 8 7 5 10 6 11 6 10 11 8 6 4 6 10 12 14 15 14 12 10 10 10 9 10 10 11 9 11 12 9 8 8 8 8 8 9 11 12 14 11 10 12 12 14 13 12 14 14 15 14 11 10 9 10 8 8 11 11 11 11 10 12 11 12 13 13 13 13 13 13 11 11 11 11 12 12 11 11 11 12 12 13 10 11 10
10 3 6 8 4 6 5 2 3 3 10 3 11 8 8 11 4 9 10 7 7 9 8 7 9 10 11 10 11 12 10 10 9 8 8 8 6 6 6 10 9 9 7 9 9 8 8 9 10 12 11 11 11 12 12 13 12 14 13 14 15 14 11 10 13 12 11 11 11 10 9 8 10 10 10 11 12 13 12 12 12 13 12 11 12 11 11 11 10 9 10 11 11 12 11 11 10
9 9 9 11 3 3 3 2 5 11 8 0 1 6 1 20 5 6 9 11 13 6 8 10 10 9 8 9 11 10 8 6 7 8 8 8 10 11 9 8 7 8 10 10 11 10 10 10 11 13 13 12 12 12 13 14 12 14 15 14 13 11 11 11 10 10 9 10 9 9 8 10 8 9 11 10 11 12 11 11 12 12 12 13 13 12 11 11 10 9 9 10 11 12 11 11 11
13 15 12 11 6 4 8 3 2 5 5 3 4 3 8 3 5 12 23 22 13 10 10 9 8 7 6 7 7 6 6 7 8 9 9 9 10 10 10 10 10 10 10 12 11 11 10 10 12 13 15 11 10 10 13 13 15 15 12 12 11 9 10 10 10 10 10 10 9 10 10 10 10 12 10 12 10 10 11 12 12 12 12 11 11 12 12 11 11 10 8 9 11 11 10 12 13
10 4 12 9 7 6 8 6 10 9 6 1 2 6 8 8 6 8 22 20 5 6 7 6 6 4 5 3 2 4 6 6 6 7 7 8 9 8 9 9 9 9 9 10 9 9 9 10 11 13 13 11 11 13 10 12 13 12 10 9 9 9 10 10 11 11 10 10 9 9 9 9 10 9 10 9 8 10 11 11 12 11 10 10 10 9 9 9 10 10 9 10 9 9 11 11 12
1 4 6 6 12 5 4 3 3 2 1 0 2 8 5 7 3 7 8 9 9 6 8 6 7 4 1 4 4 5 5 5 5 6 6 6 7 6 5 5 6 7 8 7 8 8 9 11 12 14 14 9 9 8 9 10 9 7 7 9 11 11 10 10 9 9 9 8 8 9 10 9 9 8 7 6 7 9 10 11 10 11 9 9 9 9 9 8 7 9 10 10 11 8 11 13 12
8 9 12 9 4 4 2 2 0 3 2 9 3 7 7 7 11 13 13 10 12 5 5 7 9 7 5 6 6 6 7 7 6 5 5 6 4 5 6 7 7 7 6 9 11 10 10 8 7 7 6 4 6 7 7 6 7 7 9 8 8 9 10 11 11 9 7 6 7 8 8 8 7 7 7 7 8 9 9 9 9 9 10 9 9 9 9 10 10 10 10 11 12 8 10 12 10
6 8 10 4 3 4 5 5 1 1 5 6 5 12 4 1 10 2 12 11 14 6 7 6 6 4 6 8 7 8 8 7 6 6 5 5 6 8 8 7 8 10 10 8 8 6 6 6 6 6 5 7 6 6 7 7 8 8 8 8 8 9 9 8 7 7 6 7 7 6 6 6 6 6 7 6 7 7 7 8 8 8 8 8 8 7 7 8 10 11 11 11 10 9 9 8 9
13 10 5 12 6 9 3 2 6 4 5 5 4 5 5 11 10 1 4 11 12 9 6 4 5 6 8 8 9 7 5 4 5 6 6 5 6 7 8 9 6 6 6 6 5 5 5 6 6 7 9 8 8 8 7 7 7 7 7 8 7 6 5 5 5 6 6 7 7 7 6 6 4 4 4 4 5 6 7 7 7 7 7 8 7 6 6 9 10 9 8 9 9 8 9 10 8
2 7 9 6 3 4 7 9 2 4 5 1 7 2 9 10 7 8 8 9 12 11 8 7 9 9 10 10 8 8 7 7 6 5 6 7 8 8 7 7 6 7 6 5 6 5 7 7 8 8 7 6 6 6 6 7 7 6 5 4 5 5 5 5 5 6 6 5 5 4 5 5 5 4 5 5 5 6 7 7 7 7 8 8 8 8 8 7 7 10 11 9 7 9 9 8 6
9 10 10 7 2 1 4 1 5 6 4 5 3 6 9 7 8 12 15 10 12 14 13 11 9 10 11 10 8 7 6 6 6 6 7 7 7 5 4 3 3 2 2 4 5 7 6 5 6 6 7 6 6 6 6 6 6 5 5 5 5 4 5 4 4 4 4 4 4 4 5 5 4 5 5 5 6 7 7 7 8 8 8 7 7 6 6 8 10 8 8 10 10 10 11 9 7
15 16 15 15 13 7 11 9 1 3 3 6 6 13 5 4 3 12 14 14 11 10 10 10 8 9 10 8 6 7 6 6 7 7 6 5 4 4 3 2 2 4 4 5 4 4 5 5 5 5 5 5 6 6 6 5 5 4 5 5 5 4 4 4 4 3 4 3 2 2 2 1 4 4 4 6 6 6 6 7 7 7 7 7 7 8 8 8 7 7 8 6 8 10 10 7 7
Wind_Direction
321 318 309 293 210 308 55 11 56 308 63 300 276 15 204 357 140 71 77 13 50 302 125 93 35 37 81 131 121 105 28 96 276 137 188 147 124 117 123 126 128 122 126 135 132 132 135 137 130 121 121 118 115 112 114 114 106 110 109 102 104 104 102 103 105 102 99 96 94 99 103 103 103 99 97 98 98 92 92 94 97 100 92 88 87 85 81 78 76 75 74 71 71 68 65 64 63
309 323 315 311 260 54 326 120 108 356 37 28 43 90 141 357 39 98 102 107 179 142 77 82 61 66 99 121 133 99 35 21 350 135 78 97 110 118 125 130 132 128 134 136 136 133 131 131 125 124 126 123 117 114 112 111 110 110 109 110 110 101 98 99 93 95 95 95 102 103 97 93 95 95 95 93 88 91 91 88 88 90 90 90 87 85 81 78 76 75 74 72 70 68 65 64 62
321 348 335 13 31 78 267 50 5 13 70 58 282 163 29 73 93 92 108 111 126 106 75 49 67 64 91 94 38 56 227 355 66 46 84 119 115 150 133 133 130 131 134 133 134 128 122 127 130 129 125 120 118 119 118 111 108 103 102 105 96 100 104 104 105 107 103 104 114 111 103 99 96 99 94 98 94 95 94 93 89 87 86 86 84 84 81 78 76 75 73 72 70 68 66 64 62
317 279 212 32 339 20 57 21 109 135 119 184 2 326 95 122 115 120 119 116 112 90 51 33 59 270 93 73 109 81 102 126 324 123 118 141 145 148 135 133 134 128 128 130 130 124 122 129 127 126 124 123 122 117 116 119 121 118 110 107 108 110 107 112 115 115 113 111 109 104 104 103 105 96 95 95 92 88 94 97 96 90 86 85 87 87 85 80 77 76 75 74 72 70 68 65 63
337 299 150 67 90 350 73 197 114 99 53 198 112 64 133 117 118 99 84 83 48 73 44 98 75 15 78 92 139 95 191 95 82 10 113 108 135 136 129 129 128 127 130 131 128 122 123 126 125 126 127 125 118 113 118 122 119 116 114 107 106 113 117 119 111 105 104 112 112 112 107 97 95 95 94 99 101 99 95 90 90 90 89 88 89 87 86 84 80 78 77 75 73 70 68 65 64
295 340 327 106 145 184 48 22 350 25 237 163 100 156 141 136 113 112 85 60 70 75 93 78 144 96 38 6 27 107 140 132 183 70 117 143 133 128 124 128 126 125 131 131 128 127 128 126 129 130 132 132 123 120 123 127 118 117 112 113 116 113 113 101 106 111 114 112 110 109 107 107 104 99 95 96 100 104 102 99 93 91 94 96 95 93 90 87 83 81 78 76 73 71 67 65 64
331 14 3 23 344 57 172 115 307 201 336 129 132 145 136 133 127 104 78 42 339 38 40 96 101 95 85 165 58 58 249 140 136 167 138 143 125 119 127 128 112 127 131 131 129 130 134 136 133 132 133 135 128 125 128 129 122 118 118 119 120 122 115 105 109 113 112 112 114 110 103 103 103 103 101 100 103 100 99 98 95 95 92 92 93 92 88 84 84 80 77 75 73 70 67 66 63
261 90 300 81 289 46 305 155 222 157 59 79 137 129 136 131 128 100 146 95 228 98 326 61 76 87 19 51 118 307 19 133 126 126 125 125 122 122 129 121 120 128 130 133 131 135 139 139 134 131 134 134 133 134 134 134 132 128 127 128 125 124 121 116 116 111 111 114 112 110 109 107 105 102 104 105 106 105 102 98 98 96 96 96 94 91 89 87 83 81 78 75 73 69 66 63 61
347 85 328 67 335 5 359 272 235 244 141 69 87 138 140 141 135 118 123 147 72 107 104 71 91 86 196 65 60 64 29 102 115 121 126 125 130 133 133 125 116 128 128 132 133 132 136 139 135 134 138 142 142 138 138 137 138 139 136 135 128 126 127 121 119 116 115 119 115 115 117 111 111 109 104 107 106 105 103 103 101 101 98 97 96 93 90 88 85 81 78 75 72 68 65 63 60
6 103 309 164 127 310 317 299 102 220 155 193 124 131 142 139 129 133 134 82 154 107 217 126 97 110 124 93 108 66 123 109 110 103 125 135 139 123 132 114 123 128 128 132 133 136 143 139 134 132 136 138 136 141 141 142 145 141 143 134 128 130 128 124 122 123 120 120 120 120 124 121 110 110 114 109 107 106 106 107 102 99 99 99 94 92 91 90 87 85 82 78 73 68 64 61 58
342 1 158 28 29 302 275 279 163 86 111 109 74 134 147 136 131 127 132 128 109 132 357 93 74 129 119 91 223 250 133 117 122 135 140 139 139 123 124 116 125 128 130 133 136 139 140 141 133 130 133 126 123 126 127 140 154 145 142 131 134 136 131 131 129 130 129 122 113 109 109 113 113 112 115 112 110 107 105 103 103 100 99 97 96 93 90 87 88 85 82 78 73 69 64 59 54
7 1 6 185 236 181 254 186 210 153 74 84 53 110 214 106 107 109 128 103 122 122 149 106 217 130 71 129 179 151 136 127 134 139 143 146 114 128 114 116 123 125 130 132 129 133 140 141 130 128 130 132 127 126 126 133 140 143 135 131 130 131 133 132 125 118 118 119 118 117 103 90 81 74 81 109 101 109 109 105 103 104 103 101 99 98 95 94 91 88 84 80 77 73 67 58 50
144 110 42 65 235 178 263 75 238 119 59 323 161 226 90 89 143 157 147 141 150 124 23 217 127 86 100 143 231 134 140 155 142 149 150 130 113 122 103 116 122 126 129 130 129 135 138 137 130 126 133 135 133 128 127 129 135 142 139 137 136 134 132 125 129 133 106 102 99 96 94 88 84 81 87 97 100 113 114 115 112 111 109 106 102 99 97 94 92 91 89 86 82 79 71 59 47
123 172 107 272 8 348 303 233 77 88 347 258 308 221 120 134 262 151 129 93 132 134 232 200 75 105 87 84 286 173 166 154 142 160 156 124 131 109 108 114 122 130 134 135 139 142 140 140 133 131 134 135 136 127 125 129 132 139 140 136 133 129 133 129 113 105 104 99 97 93 93 91 88 87 81 81 78 87 103 100 104 111 112 107 105 99 100 98 95 93 94 92 89 84 80 69 45
260 118 83 170 309 26 261 151 169 133 200 192 253 112 65 13 112 62 116 115 56 230 144 91 156 85 202 151 227 198 168 154 147 160 134 113 123 113 117 117 126 131 142 143 148 149 153 147 146 147 143 140 141 132 131 137 138 139 139 141 130 123 126 117 118 116 112 106 104 102 97 97 95 90 88 85 83 99 110 114 113 115 117 114 110 109 103 103 99 98 98 100 98 95 96 98 75
177 80 76 26 279 72 279 277 151 109 203 168 249 116 77 333 57 87 286 155 170 341 75 172 22 157 167 177 190 171 149 144 148 144 111 100 109 108 116 121 128 137 146 150 157 162 159 160 158 155 152 149 147 139 137 140 141 140 144 142 130 126 128 125 124 122 119 118 117 115 111 106 99 94 95 89 89 93 108 110 116 123 123 123 121 118 117 113 112 110 106 109 109 107 112 121 162
56 82 268 346 292 77 265 233 151 211 222 212 279 113 130 142 326 75 102 72 109 100 53 348 98 54 141 199 144 138 141 138 135 129 107 108 116 119 117 127 136 164 147 173 161 171 167 164 162 159 164 161 154 145 141 141 145 140 141 139 135 134 135 133 129 125 123 125 126 127 122 116 115 109 98 101 94 93 103 104 107 115 127 130 130 127 125 122 120 120 124 120 120 118 118 204 285
65 144 144 246 213 262 243 275 222 178 128 190 191 185 116 117 60 268 84 41 94 74 90 31 40 41 65 109 126 136 140 141 144 139 143 135 137 138 140 153 150 184 176 183 174 173 167 169 168 166 166 169 158 151 149 144 149 139 137 136 132 137 137 134 133 136 137 140 141 139 139 138 132 122 115 107 106 104 88 109 106 107 112 122 133 134 131 129 128 133 141 149 135 148 188 344 303
127 164 132 218 206 237 256 186 79 116 182 171 178 123 144 196 138 225 116 190 132 93 50 78 75 48 75 104 127 136 144 146 150 155 159 161 161 161 162 159 169 177 196 182 182 178 162 173 172 169 171 176 160 157 154 154 153 147 147 145 141 144 149 144 146 143 148 153 161 164 158 155 150 143 133 127 118 108 111 115 111 108 114 121 128 133 132 137 141 154 173 181 165 109 301 304 300
235 118 202 233 205 292 359 328 119 111 147 132 105 104 96 188 110 149 162 181 150 154 134 49 123 143 141 134 141 147 150 154 157 161 169 175 171 167 173 170 177 182 189 180 184 183 163 171 176 174 175 176 162 161 156 158 160 155 155 156 149 153 159 156 153 155 159 165 175 182 169 155 157 151 149 133 121 114 100 96 104 108 117 120 124 122 133 140 164 182 214 254 301 155 239 260 269
262 108 191 220 227 27 330 336 344 123 132 140 129 87 79 130 154 135 173 97 233 228 185 164 178 166 163 156 155 156 158 161 166 169 173 180 185 182 182 178 173 177 185 173 189 182 183 166 178 179 171 171 163 160 159 166 167 161 164 163 159 160 170 167 165 166 169 177 180 190 172 145 162 149 149 143 137 138 135 143 145 151 141 138 141 137 149 168 177 229 269 265 248 217 196 238 235
132 208 200 206 86 93 253 315 337 41 90 116 111 96 168 223 78 140 126 157 221 209 221 198 166 164 159 163 167 162 167 170 173 176 181 183 184 186 184 185 165 178 182 181 191 180 183 181 168 183 172 162 164 163 166 172 170 170 171 173 166 172 173 176 176 177 181 186 181 194 172 154 162 156 157 155 149 156 158 168 175 172 167 177 178 179 185 178 209 219 214 227 240 216 229 218 193
213 285 227 234 182 152 215 298 297 347 87 111 103 182 104 104 194 241 159 179 230 207 183 179 165 169 172 160 157 168 172 179 181 185 183 187 191 190 189 188 178 181 185 189 181 179 181 183 183 173 177 161 164 165 167 172 183 177 174 175 168 181 182 181 185 189 190 194 184 188 172 165 170 165 163 160 162 165 176 181 186 182 184 193 194 186 202 205 210 212 217 230 225 231 231 231 243
179 221 223 242 164 160 179 179 240 2 91 112 185 78 120 138 186 252 191 237 209 211 206 157 170 162 147 155 174 174 179 182 190 190 188 190 190 189 184 185 192 162 177 183 187 183 183 183 185 177 176 169 166 170 169 176 188 175 181 175 179 180 180 193 189 192 192 201 187 188 174 163 171 168 168 166 174 168 187 195 187 187 192 210 200 187 195 217 217 209 220 234 243 218 214 228 235
192 226 209 263 220 177 163 163 156 117 106 125 69 105 236 163 186 102 236 239 238 210 120 116 133 147 165 168 178 182 184 189 192 194 195 198 198 185 183 184 186 174 183 185 186 185 188 179 182 184 180 179 173 174 172 179 185 176 177 177 184 179 182 191 190 191 190 202 195 182 176 162 184 168 169 180 171 178 194 198 183 195 193 210 195 204 190 205 211 201 211 220 219 223 240 233 224
200 201 185 226 154 153 151 138 164 157 148 106 79 250 274 250 161 242 229 242 215 162 107 131 140 152 171 181 183 183 187 191 191 190 198 193 188 190 192 185 186 192 190 185 181 189 186 176 185 184 186 183 180 175 181 176 186 176 178 178 182 173 183 188 183 191 195 189 202 181 185 170 180 174 176 180 172 187 195 201 187 195 196 201 192 198 204 193 205 201 212 200 208 228 259 256 231
172 178 202 209 189 148 191 150 196 194 172 162 175 236 256 274 156 265 256 226 163 152 148 149 150 169 180 181 188 190 187 192 191 193 189 187 189 194 196 188 189 194 183 188 186 185 184 177 188 184 186 183 180 184 184 185 187 186 181 180 178 175 178 190 186 190 195 193 200 186 178 181 176 177 173 182 183 180 191 188 190 182 191 187 189 195 190 194 201 191 199 196 189 195 199 192 189
157 199 205 221 210 161 178 155 185 153 272 180 166 236 268 282 247 227 229 257 172 170 176 165 165 174 184 187 187 192 194 198 193 180 192 190 193 191 198 191 193 190 186 191 188 179 181 186 187 186 184 183 185 190 186 189 191 192 184 179 182 185 172 188 192 188 193 193 194 196 184 182 181 180 173 182 180 187 194 193 196 174 198 191 186 188 190 200 189 201 186 176 185 164 216 281 199
197 148 198 233 214 196 200 170 194 160 239 164 139 353 284 208 224 224 226 191 169 170 176 184 179 183 188 191 190 190 198 190 186 194 201 200 194 191 196 196 185 190 194 185 184 176 184 185 185 187 181 184 189 193 191 194 192 191 184 185 184 183 187 189 194 193 191 188 189 193 195 186 184 183 188 182 183 185 191 192 196 198 201 195 191 187 189 202 169 160 187 174 150 137 19 289 283
82 80 141 142 174 250 227 194 150 163 222 149 118 277 241 230 230 236 227 194 168 166 184 195 196 189 195 189 194 199 197 183 192 201 201 201 199 198 200 197 189 184 186 184 175 182 182 183 183 182 185 184 192 195 195 189 191 190 189 184 186 184 190 192 201 201 195 191 185 192 193 196 192 188 183 195 182 183 188 190 192 201 205 200 186 179 177 187 192 170 192 174 203 192 224 254 266
165 199 78 153 168 245 227 180 165 171 179 155 132 228 259 246 239 228 228 178 172 192 197 201 200 200 201 202 195 199 200 195 199 198 198 198 198 201 204 197 196 189 176 189 186 180 179 181 179 186 184 187 189 194 197 195 189 187 189 188 186 187 189 196 201 202 200 196 185 191 194 195 201 198 184 189 191 184 188 193 194 203 200 195 184 189 177 185 175 190 176 181 212 213 220 235 224
161 110 228 274 175 282 235 198 165 183 217 179 123 242 258 248 253 259 217 183 180 200 207 209 209 205 205 205 205 201 202 203 204 198 197 196 194 199 198 197 195 197 192 189 190 179 180 181 181 183 182 188 190 193 195 197 191 190 191 193 187 188 190 197 201 203 200 196 192 190 195 195 199 205 192 188 190 190 189 192 201 199 200 186 188 187 182 187 190 192 196 181 187 224 217 242 224
211 159 179 213 187 232 335 237 192 187 128 229 172 229 308 292 243 244 202 179 187 201 212 216 215 214 209 208 208 207 204 207 202 201 200 195 197 196 196 195 195 197 195 183 186 187 185 182 183 183 184 188 189 190 191 197 193 191 193 191 191 186 192 200 203 203 204 201 197 191 192 193 198 202 202 191 193 192 190 193 200 199 196 185 177 186 187 191 186 194 207 201 186 210 210 227 243
198 164 186 199 202 190 226 304 192 153 147 203 229 232 236 230 306 294 204 185 186 204 214 218 217 214 211 209 209 207 205 200 203 200 203 196 194 194 193 194 193 194 196 190 184 185 188 183 187 188 185 186 186 187 187 190 195 188 191 193 190 192 197 199 201 200 206 207 202 200 190 192 195 197 201 198 199 200 194 191 195 197 190 186 178 183 193 190 190 186 207 214 201 200 208 208 233
167 170 205 252 229 186 207 164 221 147 183 185 214 231 249 247 268 300 237 191 185 206 211 214 218 218 218 214 211 209 204 203 212 208 203 198 191 192 191 191 191 191 192 192 184 187 185 186 185 188 183 183 186 185 181 179 186 191 189 190 196 200 202 202 196 204 207 207 205 203 198 196 196 195 197 198 200 200 202 201 196 201 189 186 182 187 193 193 193 196 198 214 211 202 196 204 209
177 170 201 199 183 206 209 224 182 165 183 213 204 218 238 251 254 259 272 239 199 215 219 227 232 226 216 214 216 214 210 213 213 213 209 195 195 190 190 189 189 188 189 189 189 182 186 185 187 186 187 179 178 183 179 177 179 189 193 196 205 206 204 201 204 205 205 208 205 198 198 199 197 198 197 198 200 199 201 202 202 200 196 186 189 189 195 193 198 203 211 201 206 222 218 202 195
178 201 207 204 201 252 246 221 191 179 166 213 216 223 237 249 240 239 232 231 240 230 222 226 225 227 229 215 212 214 212 214 207 205 201 196 195 193 189 184 187 188 188 189 191 191 188 188 182 191 188 179 176 181 186 186 186 187 194 197 204 200 201 198 203 205 206 208 202 199 197 198 197 198 201 197 200 200 202 201 201 201 197 194 194 198 194 197 199 199 203 198 194 201 222 210 205
190 197 200 219 188 222 234 208 200 186 172 244 230 235 240 245 248 239 235 218 226 221 226 230 228 226 226 227 222 215 218 225 215 219 213 200 196 194 185 184 181 184 197 190 193 195 191 185 190 192 185 188 189 185 186 192 196 196 193 200 195 195 194 198 204 205 206 205 204 203 201 199 196 198 199 199 202 199 200 201 202 201 194 199 201 199 198 196 198 202 191 207 208 188 207 198 198
224 205 204 219 227 205 318 297 108 182 184 270 243 231 247 253 257 253 234 219 222 218 216 220 222 228 230 228 226 220 216 217 208 213 201 199 198 194 187 188 190 192 192 193 195 190 192 192 195 189 190 190 194 191 187 197 198 200 197 193 189 200 219 209 211 208 203 204 207 207 203 199 198 202 197 200 202 204 204 202 205 203 199 195 197 202 198 200 199 201 194 195 203 216 203 203 185
211 226 184 213 197 169 266 284 2 210 155 221 40 296 273 260 260 256 247 231 231 223 221 225 217 222 223 222 216 211 209 209 210 208 206 201 196 195 193 192 194 193 188 193 192 194 195 198 194 191 193 193 193 195 197 196 193 194 201 189 193 192 199 211 217 216 213 211 218 210 209 200 201 201 198 200 204 206 205 207 206 207 206 197 198 200 201 203 199 201 198 199 182 197 202 218 194
225 212 215 215 221 209 176 202 116 354 341 63 357 317 284 232 262 265 251 236 236 234 233 239 235 231 227 230 228 208 205 203 208 213 213 198 199 200 197 197 192 191 194 195 194 194 196 199 197 191 191 194 195 192 192 180 168 178 185 183 173 208 238 216 215 226 213 213 219 214 215 201 199 201 199 201 203 207 208 210 209 211 210 205 203 205 204 205 201 199 195 195 194 196 204 202 212
221 229 213 211 182 105 111 119 110 45 307 278 124 326 278 250 232 244 258 261 255 242 236 238 232 230 233 238 232 230 228 205 200 206 205 200 199 201 203 199 193 198 200 201 198 198 197 198 195 194 192 194 197 193 184 177 180 179 176 186 198 204 213 210 213 215 207 208 213 214 206 202 205 205 201 203 207 209 212 213 213 213 215 214 210 211 210 207 206 202 199 197 202 202 194 195 205
193 225 188 201 135 131 135 143 108 214 220 277 153 201 273 316 277 251 254 261 251 264 237 244 241 235 222 222 220 222 221 223 228 218 208 203 204 198 201 199 197 198 205 201 199 200 200 198 196 196 196 196 195 191 182 182 185 189 191 196 200 203 210 219 221 220 213 218 214 211 212 206 209 209 212 208 209 212 219 219 218 219 219 219 216 216 215 211 208 207 199 202 203 196 185 200 200
211 219 165 183 114 132 172 148 176 200 240 302 23 138 245 289 261 229 237 249 256 251 246 239 232 231 231 228 221 219 219 215 211 213 210 210 203 198 200 201 200 203 203 195 198 199 200 200 196 198 200 198 194 188 186 189 192 195 197 202 205 210 212 219 205 214 208 202 208 214 206 212 210 213 215 214 213 213 215 222 220 221 222 223 217 220 219 215 212 211 204 205 201 196 196 202 200
215 193 169 188 169 161 153 130 161 203 76 279 237 9 259 245 274 293 233 257 265 257 246 237 229 226 226 227 225 223 220 215 207 206 209 209 210 210 206 199 205 206 202 195 197 199 201 200 196 197 201 200 195 187 190 195 198 197 200 203 211 220 219 221 192 199 202 195 208 206 206 210 210 213 214 214 214 216 216 221 221 221 219 220 215 222 223 216 212 208 204 204 204 204 202 204 195
257 122 77 80 78 77 115 103 107 353 85 246 186 175 227 261 279 263 260 224 257 254 244 238 232 225 223 224 227 226 224 220 213 212 207 209 210 209 209 208 203 205 202 203 205 199 198 194 196 196 204 200 195 190 192 198 200 197 201 207 213 217 212 214 193 205 204 195 212 208 206 207 209 212 213 213 213 213 215 217 223 225 221 218 213 216 217 217 215 213 208 206 205 206 205 203 205
149 97 82 62 51 46 36 70 86 47 255 244 163 201 174 286 208 232 159 220 228 262 260 244 239 237 232 225 221 222 217 210 211 213 211 209 207 202 196 207 211 208 201 191 199 199 196 193 196 199 206 199 192 196 193 199 198 199 208 209 213 217 207 205 208 217 207 203 213 211 207 210 207 212 209 215 214 213 213 214 218 226 228 222 216 214 216 216 213 211 210 209 208 206 206 207 210
130 104 126 86 18 17 34 357 44 182 257 146 178 181 172 234 285 269 227 247 222 219 241 240 239 233 230 226 225 224 213 207 207 206 215 215 216 217 194 206 207 207 194 197 197 192 192 196 195 203 208 199 196 197 197 202 197 205 212 212 215 217 205 206 212 218 211 215 217 217 213 212 215 212 212 214 216 213 213 215 216 222 229 231 225 219 219 217 215 211 209 209 212 212 209 205 208
126 124 131 149 198 69 263 102 224 212 229 246 224 168 90 238 223 259 271 222 245 231 219 229 234 240 235 232 226 221 208 199 197 206 212 213 212 210 204 210 200 197 198 196 195 192 195 195 195 200 210 203 199 193 198 202 200 207 209 212 218 213 210 213 216 221 215 217 216 217 206 214 213 215 216 216 218 209 211 216 213 216 221 225 230 228 226 220 215 214 215 214 212 210 210 206 208
151 163 161 156 137 172 216 218 318 312 281 269 145 120 250 278 277 220 260 255 221 220 226 231 223 224 234 232 223 212 203 192 198 203 207 208 210 213 208 201 198 197 197 194 194 192 193 195 197 199 212 202 200 196 201 201 206 210 207 211 214 206 214 214 219 220 217 216 212 215 212 212 209 215 214 218 211 207 212 216 217 219 221 224 225 229 228 224 221 221 221 220 217 216 211 208 211
169 117 163 175 160 161 207 171 197 212 219 238 253 123 236 150 252 220 227 250 272 246 227 228 232 219 193 210 161 160 176 201 195 197 201 204 208 203 201 200 198 198 195 195 194 195 189 196 196 203 212 202 197 202 201 205 211 211 206 208 208 205 212 213 220 220 216 215 213 215 219 217 218 217 213 214 207 210 214 218 221 223 222 224 226 230 232 231 224 222 227 232 228 215 213 210 212
252 141 78 151 209 125 151 200 154 207 175 248 206 211 188 187 243 282 251 279 277 238 233 242 257 242 178 144 163 173 186 188 190 184 201 207 199 197 200 195 202 199 198 195 196 193 193 202 200 205 208 198 195 197 202 206 210 200 200 202 205 205 211 214 222 218 218 210 211 214 221 219 222 222 220 205 209 209 214 218 219 222 222 224 226 228 229 230 231 227 224 227 232 216 215 212 212
196 146 199 195 92 88 90 9 270 95 47 247 167 295 282 299 287 262 277 275 271 243 237 217 223 228 190 191 196 195 194 195 197 200 203 212 218 221 204 200 202 203 198 200 201 196 200 198 197 209 210 188 198 204 205 204 201 197 210 207 203 203 206 212 218 219 215 207 211 218 219 221 222 218 218 210 213 211 216 215 216 217 218 221 227 229 232 232 232 234 233 230 232 224 220 216 212
98 174 199 91 60 119 158 217 16 168 194 263 153 227 283 357 274 250 221 239 254 242 230 225 226 203 202 215 211 208 205 205 203 207 215 216 209 203 208 210 203 200 204 205 206 199 196 191 192 196 194 201 212 204 209 205 202 207 209 210 212 209 208 215 215 218 211 213 222 220 221 228 222 216 214 215 211 209 212 209 213 216 218 220 225 232 232 234 228 226 226 228 228 223 223 224 216
174 180 144 148 196 215 226 137 229 182 227 270 265 239 255 207 239 17 239 229 244 255 237 225 228 209 214 224 226 230 236 230 233 232 232 227 215 212 205 207 208 204 200 198 188 177 178 186 189 188 199 202 200 204 207 211 207 211 208 212 210 214 216 214 210 209 204 214 224 220 218 224 231 225 212 206 203 206 204 206 207 212 210 214 214 223 233 232 225 232 228 228 220 214 217 217 212
37 117 175 187 95 219 158 196 164 129 246 264 290 116 242 201 214 186 236 216 228 241 248 222 209 202 210 220 218 214 212 212 217 220 218 212 212 210 203 189 185 186 180 183 176 173 182 187 185 196 203 202 202 207 201 207 210 207 214 203 210 202 204 204 206 199 210 216 221 218 228 233 228 217 210 199 199 199 198 200 202 204 207 209 211 217 219 239 252 228 219 228 224 214 216 213 211
162 177 186 191 184 260 122 179 153 173 185 199 267 290 261 253 207 187 218 208 207 214 226 227 207 210 215 219 210 209 210 209 213 208 213 212 209 210 217 206 169 139 146 161 173 185 189 182 193 193 192 197 200 203 192 207 192 205 196 205 210 203 212 200 203 198 205 218 219 217 221 223 210 218 205 208 206 201 197 197 197 203 205 205 209 219 236 229 225 240 241 221 216 216 220 219 204
188 184 190 180 164 139 166 230 170 155 156 225 175 247 268 272 191 203 211 215 209 210 207 218 214 214 217 222 217 203 204 219 207 209 208 209 209 203 170 122 124 141 165 175 186 164 180 188 192 187 184 196 193 199 195 196 190 185 195 198 203 199 194 177 186 178 184 190 189 193 213 174 207 236 191 207 210 207 201 197 198 201 205 205 208 218 222 222 230 228 228 230 220 209 215 206 189